EW4956 Weather Reports


Display with metric or nautical units.
time (UTC)temp
F
wind
direction
speed
MPH
gust
MPH
rain 1hr
in
rain 24hr
in
rain mn
in
humidity
%
barometer
mb
20260508180042 65 159 0.0 8.0 0.00 0.00 0.00 33 1009.8
20260508174551 65 169 0.0 6.0 0.00 0.00 0.00 32 1009.9
20260508173043 65 180 0.0 5.0 0.00 0.00 0.00 30 1009.8
20260508171536 64 160 0.0 5.0 0.00 0.00 0.00 31 1009.7
20260508170031 64 146 0.0 5.0 0.00 0.00 0.00 31 1009.8
20260508164527 64 159 0.0 3.0 0.00 0.00 0.00 34 1009.7
20260508163024 64 161 0.0 9.0 0.00 0.00 0.00 32 1009.6
20260508161520 63 159 0.0 1.0 0.00 0.00 0.00 31 1009.6
20260508160016 63 186 0.0 1.0 0.00 0.00 0.00 31 1009.4
20260508154514 63 196 0.0 0.0 0.00 0.00 0.00 30 1009.6
20260508153014 62 197 0.0 2.0 0.00 0.00 0.00 31 1009.5
20260508151508 62 197 0.0 0.0 0.00 0.00 0.00 30 1009.6
20260508150005 61 197 0.0 0.0 0.00 0.00 0.00 33 1009.5
20260508144501 61 197 0.0 2.0 0.00 0.00 0.00 31 1009.5
20260508143103 60 197 0.0 0.0 0.00 0.00 0.00 31 1009.5
20260508141615 59 197 0.0 0.0 0.00 0.00 0.00 37 1009.5
20260508140050 57 197 0.0 0.0 0.00 0.00 0.00 37 1009.5
20260508134556 55 197 0.0 0.0 0.00 0.00 0.00 41 1009.3
20260508133043 54 197 0.0 0.0 0.00 0.00 0.00 44 1009.3
20260508131539 52 197 0.0 0.0 0.00 0.00 0.00 42 1009.3
20260508130036 52 197 0.0 0.0 0.00 0.00 0.00 43 1009.2
20260508124535 51 197 0.0 0.0 0.00 0.00 0.00 43 1009.1
20260508123042 51 197 0.0 0.0 0.00 0.00 0.00 44 1009.0
20260508121532 51 197 0.0 0.0 0.00 0.00 0.00 42 1008.9
20260508120026 51 197 0.0 0.0 0.00 0.00 0.00 43 1008.8
20260508114525 51 197 0.0 0.0 0.00 0.00 0.00 44 1008.7
20260508113039 51 197 0.0 2.0 0.00 0.00 0.00 44 1008.8
20260508111523 52 197 0.0 0.0 0.00 0.00 0.00 44 1008.6
20260508110023 52 197 0.0 0.0 0.00 0.00 0.00 43 1008.7
20260508104522 52 197 0.0 0.0 0.00 0.00 0.00 45 1008.6
20260508103026 52 197 0.0 0.0 0.00 0.00 0.00 46 1008.4
20260508101528 52 197 0.0 0.0 0.00 0.00 0.00 47 1008.5
20260508100019 52 197 0.0 0.0 0.00 0.00 0.00 48 1008.5
20260508094519 51 197 0.0 0.0 0.00 0.00 0.00 48 1008.4
20260508093018 52 197 0.0 0.0 0.00 0.00 0.00 49 1008.3
20260508091525 52 197 0.0 0.0 0.00 0.00 0.00 48 1008.4
20260508090022 52 197 0.0 0.0 0.00 0.00 0.00 47 1008.5
20260508084511 53 197 0.0 0.0 0.00 0.00 0.00 45 1008.6
20260508083010 54 197 0.0 0.0 0.00 0.00 0.00 44 1008.7
20260508081510 54 197 0.0 0.0 0.00 0.00 0.00 44 1008.7
20260508080007 54 195 0.0 0.0 0.00 0.00 0.00 43 1008.9
20260508074506 54 195 0.0 0.0 0.00 0.00 0.00 44 1008.9
20260508073005 54 194 0.0 0.0 0.00 0.00 0.00 44 1008.9
20260508071511 54 194 0.0 0.0 0.00 0.00 0.00 44 1009.0
20260508070003 53 194 0.0 0.0 0.00 0.00 0.00 44 1009.1
20260508064502 53 194 0.0 0.0 0.00 0.00 0.00 45 1009.1
20260508063100 53 194 0.0 0.0 0.00 0.00 0.00 45 1009.2
20260508061603 54 194 0.0 0.0 0.00 0.00 0.00 43 1009.1
20260508060057 54 194 0.0 0.0 0.00 0.00 0.00 44 1008.9
20260508054556 54 194 0.0 0.0 0.00 0.00 0.00 43 1009.0
20260508053056 54 194 0.0 0.0 0.00 0.00 0.00 41 1008.8
20260508051555 55 194 0.0 0.0 0.00 0.00 0.00 41 1008.8
20260508050054 56 194 0.0 0.0 0.00 0.00 0.00 41 1008.9
20260508044554 56 194 0.0 0.0 0.00 0.00 0.00 40 1008.9
20260508043106 56 193 0.0 0.0 0.00 0.00 0.00 39 1009.0
20260508041553 56 188 0.0 0.0 0.00 0.00 0.00 40 1009.0
20260508040052 56 188 0.0 0.0 0.00 0.00 0.00 40 1009.2
20260508034552 58 188 0.0 0.0 0.00 0.00 0.00 39 1009.0
20260508033051 58 188 0.0 0.0 0.00 0.00 0.00 38 1008.8
20260508031551 57 184 0.0 0.0 0.00 0.00 0.00 39 1008.9
20260508030050 59 175 0.0 0.0 0.00 0.00 0.00 36 1008.7
20260508024552 60 175 0.0 0.0 0.00 0.00 0.00 34 1008.6
20260508023049 61 175 0.0 0.0 0.00 0.00 0.00 33 1008.6
20260508021552 63 175 0.0 0.0 0.00 0.00 0.00 31 1008.5
20260508020047 63 175 0.0 1.0 0.00 0.00 0.00 30 1008.5
20260508014547 63 175 0.0 2.0 0.00 0.00 0.00 30 1008.4
20260508013046 64 175 0.0 0.0 0.00 0.00 0.00 30 1008.6
20260508011545 65 178 0.0 0.0 0.00 0.00 0.00 29 1008.6
20260508010044 66 178 0.0 1.0 0.00 0.00 0.00 28 1008.8
20260508004545 66 175 0.0 2.0 0.00 0.00 0.00 28 1008.7
20260508003040 67 175 0.0 1.0 0.00 0.00 0.00 28 1009.0
20260508001540 67 167 0.0 5.0 0.00 0.00 0.00 28 1009.2
20260508000037 66 163 0.0 3.0 0.00 0.00 0.00 28 1009.3
20260507234537 65 169 0.0 3.0 0.00 0.00 0.00 29 1009.4
20260507233038 67 180 0.0 3.0 0.00 0.00 0.00 28 1009.6
20260507231533 66 182 0.0 1.0 0.00 0.00 0.00 29 1009.9
20260507230029 67 190 0.0 1.0 0.00 0.00 0.00 28 1010.3
20260507224531 66 193 0.0 0.0 0.00 0.00 0.00 30 1010.7
20260507223026 67 184 0.0 1.0 0.00 0.00 0.00 29 1010.8
20260507221524 66 161 0.0 2.0 0.00 0.00 0.00 29 1010.9
20260507220024 67 198 0.0 5.0 0.00 0.00 0.00 30 1011.0
20260507214526 66 180 0.0 5.0 0.00 0.00 0.00 29 1011.3
20260507213020 65 168 0.0 3.0 0.00 0.00 0.00 28 1011.3
20260507211518 65 171 0.0 2.0 0.00 0.00 0.00 28 1011.6
20260507210032 66 170 0.0 6.0 0.00 0.00 0.00 27 1011.9
20260507204515 66 169 0.0 7.0 0.00 0.00 0.00 28 1012.1
20260507203013 66 160 0.0 2.0 0.00 0.00 0.00 27 1012.1
20260507201512 65 178 0.0 3.0 0.00 0.00 0.00 25 1012.4
20260507200010 66 161 0.0 3.0 0.00 0.00 0.00 25 1012.5
20260507194509 67 174 0.0 1.0 0.00 0.00 0.00 26 1012.6
20260507193007 64 183 0.0 1.0 0.00 0.00 0.00 26 1012.8
20260507191505 64 183 0.0 1.0 0.00 0.00 0.00 28 1013.1
20260507190006 62 183 0.0 1.0 0.00 0.00 0.00 28 1013.2
20260507184509 64 183 0.0 2.0 0.00 0.00 0.00 28 1013.2
20260507183003 63 192 0.0 1.0 0.00 0.00 0.00 28 1013.4
20260507181502 65 192 0.0 1.0 0.00 0.00 0.00 28 1013.5